This is the latest recevied weather packets stored in our database for station/object ON6OO-13. If no packets are shown the sender has not sent any weather packets the latest 1 day(s).
| Time | Temp. | Humidity | Pressure | Rain* | Wind** | Luminosity | Snow |
|---|---|---|---|---|---|---|---|
| 1777964290 | 10° C | 99% | 1010.8 hPa | 0 mm | 3.13 m/s, 336° | - | - |
| 1777963378 | 10° C | 99% | 1010.8 hPa | 0 mm | 2.68 m/s, 352° | - | - |
| 1777962466 | 10° C | 99% | 1010.8 hPa | 0 mm | 2.68 m/s, 337° | - | - |
| 1777961554 | 10° C | 99% | 1011.1 hPa | 0 mm | 2.68 m/s, 347° | - | - |
| 1777960642 | 10.56° C | 99% | 1010.8 hPa | 0 mm | 4.02 m/s, 3° | - | - |
| 1777959730 | 10.56° C | 99% | 1011.1 hPa | 0 mm | 3.13 m/s, 340° | - | - |
| 1777958818 | 10.56° C | 99% | 1010.8 hPa | 0 mm | 4.02 m/s, 329° | - | - |
| 1777957906 | 10.56° C | 99% | 1010.8 hPa | 0 mm | 2.68 m/s, 348° | - | - |
| 1777956994 | 10.56° C | 99% | 1010.8 hPa | 0 mm | 0.89 m/s, 329° | - | - |
| 1777956082 | 10.56° C | 99% | 1010.4 hPa | 0 mm | 2.68 m/s, 340° | - | - |
| 1777955170 | 11.11° C | 99% | 1010.8 hPa | 0 mm | 3.58 m/s, 333° | - | - |
| 1777954258 | 11.11° C | 99% | 1010.4 hPa | 0 mm | 2.24 m/s, 355° | - | - |
| 1777953346 | 11.11° C | 99% | 1010.8 hPa | 0 mm | 3.58 m/s, 340° | - | - |
| 1777952434 | 11.11° C | 99% | 1010.8 hPa | 0 mm | 2.24 m/s, 352° | - | - |
| 1777951522 | 11.11° C | 99% | 1010.8 hPa | 0 mm | 1.34 m/s, 10° | - | - |
| 1777950610 | 11.11° C | 99% | 1010.8 hPa | 0 mm | 2.68 m/s, 0° | - | - |
| 1777949698 | 11.67° C | 99% | 1010.8 hPa | 0 mm | 4.47 m/s, 18° | - | - |
| 1777948786 | 11.67° C | 99% | 1010.8 hPa | 0 mm | 1.79 m/s, 354° | - | - |
| 1777947874 | 11.67° C | 99% | 1010.8 hPa | 0 mm | 3.13 m/s, 353° | - | - |
| 1777946962 | 12.22° C | 99% | 1010.8 hPa | 0 mm | 2.68 m/s, 351° | - | - |
| 1777946050 | 12.22° C | 99% | 1010.8 hPa | 0 mm | 1.79 m/s, 329° | - | - |
| 1777945138 | 12.22° C | 99% | 1010.8 hPa | 0 mm | 4.92 m/s, 352° | - | - |
* Rain latest hour (hover to see other rain measurements)
** Current wind speed in m/s (hover to see current wind gust speed)